Regional Weather Roundup
Issued by NWS Little Rock, AR

Home | Current Version | Previous Version | Text Only | Print | Product List | Glossary Off
Versions: 1 2 3 4 5 6 7 8 9 10 11 12 13 14 15 16 17 18 19 20 21 22 23 24 25 26 27 28 29 30 31 32 33 34 35 36 37 38 39 40 41 42 43 44 45 46 47 48 49 50

000
ASUS44 KLZK 280905
RWRLZK

WEATHER ROUNDUP FOR ARKANSAS
NATIONAL WEATHER SERVICE LITTLE ROCK AR
300 AM CST FRI NOV 28 2014

NOTE: "FAIR" INDICATES FEW OR NO CLOUDS BELOW 12,000 FEET WITH NO
SIGNIFICANT WEATHER AND/OR OBSTRUCTIONS TO VISIBILITY.

ARZ001-003-010-029-281000-
NORTHWEST ARKANSAS

CITY           SKY/WX    TMP DP  RH WIND       PRES   REMARKS
FAYETTEVILLE   CLEAR     35  26  69 S3        30.28R
FORT SMITH     CLEAR     33  27  78 NE6       30.32S WCI  28
HARRISON       CLEAR     34  26  72 SE5       30.29R WCI  30
BENTONVILLE    CLEAR     34  25  69 S7        30.27F WCI  28
ROGERS         CLEAR     35  25  66 SE8       30.27F WCI  29
SILOAM SPGS    CLEAR     36  21  55 S6        30.28S
HIGHFILL       CLEAR     31  25  78 S8        30.26F WCI  23
$$

ARZ004-005-016-281000-
NORTH CENTRAL ARKANSAS

CITY           SKY/WX    TMP DP  RH WIND       PRES   REMARKS
BATESVILLE     CLEAR     36  27  69 S3        30.38F
FLIPPIN        CLEAR     28  21  74 E3        30.33S
MTN HOME       CLEAR     31  25  78 SE5       30.32S WCI  26
$$

ARZ040-041-281000-
WEST CENTRAL ARKANSAS

CITY           SKY/WX    TMP DP  RH WIND       PRES   REMARKS
MENA           CLEAR     34  30  86 CALM      30.34S
MOUNT IDA      PTCLDY    28  25  88 CALM      30.34S
$$

ARZ009-017-025-026-028-281000-
NORTHEAST ARKANSAS

CITY           SKY/WX    TMP DP  RH WIND       PRES   REMARKS
CORNING        FAIR      32  28  86 SE7       30.40S WCI  26
JONESBORO      CLEAR     30  28  92 SE6       30.40F WCI  24
NEWPORT        CLEAR     30  28  92 S6        30.40F WCI  24
WALNUT RIDGE   CLEAR     30  27  86 S3        30.39R
BLYTHEVILLE    CLEAR     38  26  62 S7        30.43F
$$

ARZ022-023-033-042-044-281000-
CENTRAL ARKANSAS

CITY           SKY/WX    TMP DP  RH WIND       PRES   REMARKS
LITTLE ROCK    CLEAR     35  28  75 S3        30.41S
N LITTLE ROCK    N/A     35  31  84 S7        30.41S WCI  30
JACKSONVILLE   CLEAR     28  25  91 CALM      30.40S
SEARCY         CLEAR     27  26  96 CALM      30.41F FOG
HOT SPRINGS    PTCLDY    36  29  75 E5        30.39F
RUSSELLVILLE   CLEAR     34  28  79 VRB3      30.35F
CLINTON        FAIR      25  25 100 CALM      30.40S FOG
$$

ARZ036-281000-
EAST ARKANSAS

CITY           SKY/WX    TMP DP  RH WIND       PRES   REMARKS
WEST MEMPHIS   PTCLDY    28  27  96 SE6       30.43S WCI  22
$$

ARZ050-053-066-070-073-281000-
SOUTHWEST ARKANSAS

CITY           SKY/WX    TMP DP  RH WIND       PRES   REMARKS
ARKADELPHIA    FAIR      29  29 100 CALM      30.42S
CAMDEN         CLEAR     30  28  93 MISG      30.42F
TEXARKANA      CLEAR     37  32  82 SE7       30.38F
EL DORADO      CLEAR     33  30  88 SE3       30.42S
DE QUEEN       PTCLDY    29  28  96 CALM      30.37S FOG
$$

ARZ056-057-069-281000-
SOUTHEAST ARKANSAS

CITY           SKY/WX    TMP DP  RH WIND       PRES   REMARKS
PINE BLUFF     CLEAR     31  28  89 S5        30.41F WCI  26
STUTTGART      CLEAR     36  30  80 SE7       30.41F
MONTICELLO     CLEAR     34  30  85 S3        30.43S

$$




USA.gov is the U.S. government's official web portal to all federal, state and local government web resources and services.